| time (UTC) | temp C | wind direction | speed KPH | gust KPH | rain 1hr cm | rain 24hr cm | rain mn cm | humidity % | barometer mb |
| 20260507200035 | 7 | 0 | 0.0 | 4.8 | 0.00 | 0.00 | 0.00 | 80 | 1018.5 |
| 20260507194540 | 7 | 28 | 0.0 | 4.8 | 0.00 | 0.00 | 0.00 | 79 | 1018.3 |
| 20260507193034 | 8 | 339 | 0.0 | 4.8 | 0.00 | 0.00 | 0.00 | 78 | 1018.2 |
| 20260507191538 | 8 | 0 | 0.0 | 4.8 | 0.00 | 0.00 | 0.00 | 76 | 1018.0 |
| 20260507190035 | 8 | 352 | 0.0 | 4.8 | 0.00 | 0.00 | 0.00 | 74 | 1017.9 |
| 20260507184534 | 9 | 0 | 0.0 | 4.8 | 0.00 | 0.00 | 0.00 | 72 | 1017.8 |
| 20260507183032 | 10 | 9 | 1.6 | 8.0 | 0.00 | 0.00 | 0.00 | 70 | 1017.6 |
| 20260507181537 | 10 | 0 | 0.0 | 11.3 | 0.00 | 0.00 | 0.00 | 72 | 1017.5 |
| 20260507180039 | 10 | 0 | 0.0 | 6.4 | 0.00 | 0.00 | 0.00 | 74 | 1017.3 |
| 20260507174540 | 9 | 54 | 0.0 | 9.7 | 0.00 | 0.00 | 0.00 | 74 | 1017.2 |
| 20260507173036 | 10 | 19 | 1.6 | 8.0 | 0.00 | 0.00 | 0.00 | 73 | 1017.3 |
| 20260507171536 | 10 | 13 | 1.6 | 12.9 | 0.00 | 0.00 | 0.00 | 72 | 1017.2 |
| 20260507170045 | 11 | 0 | 1.6 | 8.0 | 0.00 | 0.00 | 0.00 | 71 | 1017.0 |
| 20260507164536 | 11 | 316 | 3.2 | 12.9 | 0.00 | 0.00 | 0.00 | 70 | 1017.0 |
| 20260507163039 | 11 | 296 | 3.2 | 12.9 | 0.00 | 0.00 | 0.00 | 69 | 1017.0 |
| 20260507161536 | 11 | 14 | 4.8 | 14.5 | 0.00 | 0.00 | 0.00 | 65 | 1016.8 |
| 20260507160034 | 11 | 74 | 6.4 | 16.1 | 0.00 | 0.00 | 0.00 | 65 | 1016.7 |
| 20260507154538 | 11 | 65 | 3.2 | 14.5 | 0.00 | 0.00 | 0.00 | 65 | 1016.7 |
| 20260507153043 | 11 | 69 | 3.2 | 16.1 | 0.00 | 0.00 | 0.00 | 63 | 1016.6 |
| 20260507151535 | 12 | 13 | 3.2 | 14.5 | 0.00 | 0.00 | 0.00 | 66 | 1016.5 |
| 20260507150039 | 12 | 33 | 3.2 | 12.9 | 0.00 | 0.00 | 0.00 | 65 | 1016.4 |
| 20260507144534 | 12 | 94 | 3.2 | 17.7 | 0.00 | 0.00 | 0.00 | 65 | 1016.2 |
| 20260507143037 | 12 | 9 | 4.8 | 12.9 | 0.00 | 0.00 | 0.00 | 66 | 1016.3 |
| 20260507141537 | 12 | 351 | 3.2 | 16.1 | 0.00 | 0.00 | 0.00 | 66 | 1016.3 |
| 20260507140034 | 11 | 0 | 1.6 | 17.7 | 0.00 | 0.00 | 0.00 | 67 | 1016.3 |
| 20260507134542 | 12 | 295 | 6.4 | 17.7 | 0.00 | 0.03 | 0.00 | 66 | 1016.2 |
| 20260507133036 | 12 | 352 | 3.2 | 14.5 | 0.00 | 0.03 | 0.00 | 65 | 1016.1 |
| 20260507131551 | 12 | 103 | 4.8 | 19.3 | 0.00 | 0.03 | 0.00 | 65 | 1016.1 |
| 20260507130034 | 12 | 69 | 1.6 | 11.3 | 0.00 | 0.03 | 0.00 | 66 | 1016.0 |
| 20260507124535 | 11 | 322 | 3.2 | 14.5 | 0.00 | 0.15 | 0.00 | 66 | 1015.8 |
| 20260507123041 | 11 | 302 | 8.0 | 22.5 | 0.00 | 0.15 | 0.00 | 64 | 1015.7 |
| 20260507121539 | 11 | 5 | 4.8 | 17.7 | 0.00 | 0.15 | 0.00 | 65 | 1015.7 |
| 20260507120041 | 12 | 5 | 4.8 | 16.1 | 0.00 | 0.15 | 0.00 | 65 | 1015.6 |
| 20260507114533 | 12 | 86 | 4.8 | 16.1 | 0.00 | 0.36 | 0.00 | 63 | 1015.5 |
| 20260507113039 | 12 | 304 | 4.8 | 14.5 | 0.00 | 0.36 | 0.00 | 60 | 1015.4 |
| 20260507111538 | 12 | 352 | 6.4 | 16.1 | 0.00 | 0.36 | 0.00 | 58 | 1015.4 |
| 20260507110036 | 13 | 12 | 4.8 | 20.9 | 0.00 | 0.36 | 0.00 | 59 | 1015.3 |
| 20260507104536 | 13 | 115 | 4.8 | 20.9 | 0.00 | 0.61 | 0.00 | 58 | 1015.2 |
| 20260507103035 | 13 | 92 | 4.8 | 20.9 | 0.00 | 0.61 | 0.00 | 56 | 1014.9 |
| 20260507101541 | 12 | 329 | 4.8 | 22.5 | 0.00 | 0.61 | 0.00 | 58 | 1014.9 |
| 20260507100041 | 12 | 323 | 6.4 | 24.1 | 0.00 | 0.61 | 0.00 | 57 | 1014.7 |
| 20260507094539 | 12 | 49 | 6.4 | 22.5 | 0.00 | 0.74 | 0.00 | 60 | 1014.7 |
| 20260507093035 | 11 | 58 | 4.8 | 19.3 | 0.00 | 0.74 | 0.00 | 63 | 1014.6 |
| 20260507091549 | 11 | 65 | 8.0 | 19.3 | 0.00 | 0.74 | 0.00 | 68 | 1014.5 |
| 20260507090040 | 11 | 0 | 4.8 | 19.3 | 0.00 | 0.74 | 0.00 | 70 | 1014.6 |
| 20260507084538 | 11 | 44 | 4.8 | 16.1 | 0.00 | 0.84 | 0.00 | 73 | 1014.3 |
| 20260507083036 | 10 | 38 | 3.2 | 16.1 | 0.00 | 0.84 | 0.00 | 75 | 1014.4 |
| 20260507081543 | 9 | 96 | 4.8 | 17.7 | 0.00 | 0.84 | 0.00 | 76 | 1014.3 |
| 20260507080034 | 9 | 167 | 3.2 | 17.7 | 0.00 | 0.84 | 0.00 | 78 | 1014.2 |
| 20260507074551 | 8 | 76 | 4.8 | 17.7 | 0.00 | 0.94 | 0.00 | 79 | 1014.2 |
| 20260507073037 | 9 | 316 | 4.8 | 16.1 | 0.00 | 0.94 | 0.00 | 80 | 1014.0 |
| 20260507071536 | 8 | 94 | 3.2 | 14.5 | 0.00 | 0.94 | 0.00 | 84 | 1014.0 |
| 20260507070038 | 7 | 66 | 4.8 | 17.7 | 0.00 | 0.94 | 0.00 | 86 | 1013.8 |
| 20260507064534 | 7 | 90 | 3.2 | 16.1 | 0.00 | 1.17 | 0.00 | 88 | 1013.9 |
| 20260507063032 | 7 | 66 | 3.2 | 16.1 | 0.00 | 1.17 | 0.00 | 88 | 1013.7 |
| 20260507061539 | 7 | 99 | 3.2 | 11.3 | 0.00 | 1.17 | 0.00 | 90 | 1013.7 |
| 20260507060039 | 6 | 9 | 1.6 | 14.5 | 0.00 | 1.17 | 0.00 | 91 | 1013.4 |
| 20260507054548 | 6 | 56 | 4.8 | 12.9 | 0.00 | 1.45 | 0.00 | 91 | 1013.5 |
| 20260507053035 | 6 | 148 | 1.6 | 14.5 | 0.00 | 1.45 | 0.00 | 92 | 1013.6 |
| 20260507051532 | 6 | 0 | 1.6 | 11.3 | 0.00 | 1.45 | 0.00 | 92 | 1013.2 |
| 20260507050036 | 6 | 0 | 1.6 | 14.5 | 0.00 | 1.45 | 0.00 | 92 | 1013.1 |
| 20260507044539 | 6 | 65 | 3.2 | 12.9 | 0.00 | 1.65 | 0.00 | 93 | 1012.9 |
| 20260507043035 | 6 | 5 | 1.6 | 14.5 | 0.00 | 1.65 | 0.00 | 93 | 1012.6 |
| 20260507041541 | 6 | 0 | 1.6 | 9.7 | 0.00 | 1.65 | 0.00 | 93 | 1012.5 |
| 20260507040036 | 6 | 0 | 0.0 | 8.0 | 0.00 | 1.65 | 0.00 | 93 | 1012.3 |
| 20260507034530 | 6 | 0 | 0.0 | 8.0 | 0.00 | 1.68 | 0.00 | 93 | 1012.3 |
| 20260507033037 | 6 | 347 | 0.0 | 6.4 | 0.00 | 1.68 | 0.00 | 93 | 1012.1 |
| 20260507031539 | 6 | 67 | 0.0 | 6.4 | 0.00 | 1.68 | 0.00 | 93 | 1012.0 |
| 20260507030047 | 6 | 30 | 1.6 | 9.7 | 0.00 | 1.68 | 0.00 | 93 | 1011.9 |
| 20260507024541 | 6 | 0 | 0.0 | 9.7 | 0.00 | 1.68 | 0.00 | 93 | 1011.8 |
| 20260507023034 | 6 | 87 | 0.0 | 9.7 | 0.00 | 1.68 | 0.00 | 93 | 1011.7 |
| 20260507021539 | 6 | 0 | 0.0 | 8.0 | 0.00 | 1.68 | 0.00 | 93 | 1011.7 |
| 20260507020039 | 6 | 0 | 3.2 | 12.9 | 0.00 | 1.68 | 0.00 | 93 | 1011.5 |
| 20260507014545 | 6 | 0 | 0.0 | 4.8 | 0.00 | 1.68 | 0.00 | 93 | 1011.5 |
| 20260507013038 | 6 | 0 | 1.6 | 8.0 | 0.00 | 1.68 | 0.00 | 93 | 1011.5 |
| 20260507011533 | 6 | 0 | 0.0 | 6.4 | 0.00 | 1.68 | 0.00 | 94 | 1011.1 |
| 20260507010038 | 6 | 84 | 1.6 | 11.3 | 0.00 | 1.68 | 0.00 | 94 | 1010.9 |
| 20260507004536 | 6 | 0 | 1.6 | 9.7 | 0.00 | 1.68 | 0.00 | 94 | 1011.1 |
| 20260507003039 | 6 | 34 | 1.6 | 9.7 | 0.00 | 1.68 | 0.00 | 94 | 1011.0 |
| 20260507001540 | 6 | 0 | 0.0 | 4.8 | 0.00 | 1.68 | 0.00 | 94 | 1010.9 |
| 20260507000040 | 6 | 0 | 0.0 | 12.9 | 0.00 | 1.68 | 0.00 | 94 | 1011.0 |
| 20260506234534 | 6 | 59 | 0.0 | 6.4 | 0.00 | 1.68 | 0.00 | 93 | 1010.7 |
| 20260506233035 | 6 | 44 | 0.0 | 6.4 | 0.00 | 1.68 | 0.00 | 94 | 1010.7 |
| 20260506231538 | 6 | 0 | 1.6 | 14.5 | 0.00 | 1.68 | 0.00 | 93 | 1010.7 |
| 20260506230037 | 6 | 0 | 3.2 | 12.9 | 0.00 | 1.68 | 0.00 | 93 | 1010.4 |
| 20260506224535 | 6 | 19 | 3.2 | 19.3 | 0.00 | 1.68 | 0.00 | 94 | 1010.6 |
| 20260506223036 | 6 | 5 | 1.6 | 14.5 | 0.00 | 1.68 | 0.00 | 94 | 1010.4 |
| 20260506221536 | 6 | 88 | 4.8 | 16.1 | 0.00 | 1.68 | 0.00 | 94 | 1010.6 |
| 20260506220033 | 6 | 62 | 1.6 | 11.3 | 0.00 | 1.68 | 0.00 | 94 | 1010.6 |
| 20260506214532 | 6 | 64 | 1.6 | 9.7 | 0.00 | 1.68 | 1.68 | 94 | 1010.7 |
| 20260506213036 | 6 | 0 | 0.0 | 14.5 | 0.00 | 1.68 | 1.68 | 94 | 1010.5 |
| 20260506211535 | 6 | 35 | 3.2 | 12.9 | 0.00 | 1.68 | 1.68 | 94 | 1010.2 |
| 20260506210034 | 6 | 74 | 3.2 | 14.5 | 0.00 | 1.68 | 1.68 | 94 | 1009.9 |
| 20260506204535 | 6 | 0 | 1.6 | 14.5 | 0.00 | 1.68 | 1.68 | 94 | 1009.9 |
| 20260506203037 | 6 | 0 | 3.2 | 9.7 | 0.00 | 1.68 | 1.68 | 94 | 1010.2 |
| 20260506201536 | 6 | 0 | 0.0 | 6.4 | 0.00 | 1.68 | 1.68 | 94 | 1010.0 |